FENGYUN 1C DEB

Satellite information

Favourite Embed

Satellite Type and Status

DEBRISIN ORBIT

Key statistics

Satellite FENGYUN 1C DEB at a glance.

Uptime

9555

Days in orbit

Revolutions

≈ 14.1

Per day

Orbit

SSO

Sun Synchronous Orbit

Inclination

98.3

Latest

Satellite identification and parameters

Extended collection of information and parameters for FENGYUN 1C DEB.

Object identification

Identified? True

Debris? True

Object name: FENGYUN 1C DEB

International designator: 1999-025BYM

Object number (NORAD): 31546

Object ID (CCSDS): 31546

Country: PEOPLES REPUBLIC OF CHINA (PRC)

Current information (Y/N): Y

RCS size: SMALL

Orbital parameters

Period: 102.002 minutes

Inclination: 98.2518 deg

SMA: 7231.547 km

Apoapsis: 959.2 km

Periapsis: 747.625 km

RAAN: 268.3433 deg

Eccentricy: 0.0146286

Argument of periapsis: 238.5968 deg

Mean anomaly: 120.0828 deg

Mean motion: 14.11743839 rev/day

Mean motion (dot): 0.00002758 rev/day2

B* drag term: 0.0013882 1/REarth

Two-line elements (TLE)

Creation date: July 5, 2025, 5:45 p.m.

Reference frame: TEME

Reference center: EARTH

Epoch: July 5, 2025, 4:09 a.m. UTC

TLE line 0: 0 FENGYUN 1C DEB

TLE line 1: 1 31546U 99025BYM 25186.17304644 .00002758 00000-0 13882-2 0 9991

TLE line 2: 2 31546 98.2518 268.3433 0146286 238.5968 120.0828 14.11743839925223

Live tracking on map

Real-time ground track for satellite FENGYUN 1C DEB.

In-orbit conjunctions

A list of the most updated potential collisions computed for object FENGYUN 1C DEB.

Target Orbit TCA Probability of collision Miss distance Type
RESURS O1-N4 SSO 2025-03-07 13:16:15 0.0001970534 125.0 (m) PAYLOAD
CZ-6A DEB LEO 2025-02-26 21:07:04 0.0001997343 573.0 (m) DEBRIS
COSMOS 1275 DEB LEO 2024-07-08 17:03:15 0.0001621599 134.0 (m) DEBRIS

Associated space launch

Chinese polar orbiting meteorological satellite

FENGYUN 1C DEB was lifted into orbit during the mission ‘Long March 4B | Feng Yun 1C’, on board a Long March 4B space rocket.

The launch took place on May 10, 1999, 1:33 a.m. from Launch Complex 7.

For more information about the launch, click the button.

Launch to space Long March 4B | Feng Yun 1C
Long March 4B | Feng Yun 1C

Agency: N/A

Status: Launch Successful

Launch date: May 10, 1999, 1:33 a.m. UTC

Rocket: Long March 4B

Launch pad: Launch Complex 7

Location: Taiyuan Satellite Launch Center, People's Republic of China

...

Latest news about this satellite

There are no fresh news available about this satellite. Check back as we update our databases every day.


Newsletter sign-up

Weekly statistics, charts and insights to help you stay on top of the space industry.